Time,TemperatureF,DewpointF,PressureIn,WindDirection,WindDirectionDegrees,WindSpeedMPH,WindSpeedGustMPH,Humidity,HourlyPrecipIn,Conditions,Clouds,dailyrainin,SoftwareType,DateUTC
2013-09-01 00:03:00,64.0,63.0,-100.00,South,190,4.0,7.0,96,-99.99,,,-99.99,,2013-09-01 05:03:00,
2013-09-01 00:43:00,64.0,63.0,-100.00,SSW,210,0.0,2.0,97,-99.99,,,-99.99,,2013-09-01 05:43:00,
2013-09-01 00:52:00,64.0,63.0,-100.00,SSW,210,0.0,2.0,97,-99.99,,,-99.99,,2013-09-01 05:52:00,
2013-09-01 01:02:00,64.0,63.0,-100.00,SSW,210,0.0,2.0,97,-99.99,,,-99.99,,2013-09-01 06:02:00,
2013-09-01 01:42:00,64.0,63.0,-100.00,SE,125,1.0,5.0,98,-99.99,,,-99.99,,2013-09-01 06:42:00,
2013-09-01 01:52:00,64.0,63.0,-100.00,SE,125,1.0,5.0,98,-99.99,,,-99.99,,2013-09-01 06:52:00,
2013-09-01 02:02:00,64.0,63.0,-100.00,SE,125,1.0,5.0,98,-99.99,,,-99.99,,2013-09-01 07:02:00,
2013-09-01 02:10:00,64.0,64.0,-100.00,South,180,3.0,6.0,98,-99.99,,,-99.99,,2013-09-01 07:10:00,
2013-09-01 02:42:00,64.0,64.0,-100.00,South,180,3.0,6.0,98,-99.99,,,-99.99,,2013-09-01 07:42:00,
2013-09-01 02:52:00,64.0,64.0,-100.00,South,180,3.0,6.0,98,-99.99,,,-99.99,,2013-09-01 07:52:00,
2013-09-01 03:02:00,64.0,64.0,-100.00,South,180,3.0,6.0,98,-99.99,,,-99.99,,2013-09-01 08:02:00,
2013-09-01 03:43:00,64.0,64.0,-100.00,South,180,4.0,8.0,99,-99.99,,,-99.99,,2013-09-01 08:43:00,
2013-09-01 03:52:00,64.0,64.0,-100.00,South,180,4.0,8.0,99,-99.99,,,-99.99,,2013-09-01 08:52:00,
2013-09-01 04:02:00,64.0,64.0,-100.00,South,180,4.0,8.0,99,-99.99,,,-99.99,,2013-09-01 09:02:00,
2013-09-01 04:43:00,64.0,64.0,-100.00,South,180,4.0,7.0,99,-99.99,,,-99.99,,2013-09-01 09:43:00,
2013-09-01 04:53:00,64.0,64.0,-100.00,South,180,4.0,7.0,99,-99.99,,,-99.99,,2013-09-01 09:53:00,
2013-09-01 05:03:00,64.0,64.0,-100.00,South,180,4.0,7.0,99,-99.99,,,-99.99,,2013-09-01 10:03:00,
2013-09-01 05:42:00,64.0,63.0,-100.00,West,280,3.0,17.0,99,-99.99,,,-99.99,,2013-09-01 10:42:00,
2013-09-01 05:53:00,64.0,63.0,-100.00,West,280,3.0,17.0,99,-99.99,,,-99.99,,2013-09-01 10:53:00,
2013-09-01 06:02:00,64.0,63.0,-100.00,West,280,3.0,17.0,99,-99.99,,,-99.99,,2013-09-01 11:02:00,
2013-09-01 06:42:00,63.0,62.0,-100.00,WSW,240,2.0,5.0,98,-99.99,,,-99.99,,2013-09-01 11:42:00,
2013-09-01 06:52:00,63.0,62.0,-100.00,WSW,240,2.0,5.0,98,-99.99,,,-99.99,,2013-09-01 11:52:00,
2013-09-01 07:01:00,63.0,62.0,-100.00,WSW,240,2.0,5.0,98,-99.99,,,-99.99,,2013-09-01 12:01:00,
2013-09-01 07:42:00,62.0,62.0,-100.00,NW,305,1.0,7.0,98,-99.99,,,-99.99,,2013-09-01 12:42:00,
2013-09-01 07:52:00,62.0,62.0,-100.00,NW,305,1.0,7.0,98,-99.99,,,-99.99,,2013-09-01 12:52:00,
2013-09-01 08:02:00,62.0,62.0,-100.00,NW,305,1.0,7.0,98,-99.99,,,-99.99,,2013-09-01 13:02:00,
2013-09-01 08:42:00,63.0,62.0,-100.00,WNW,285,5.0,9.0,98,-99.99,,,-99.99,,2013-09-01 13:42:00,
2013-09-01 08:52:00,63.0,62.0,-100.00,WNW,285,5.0,9.0,98,-99.99,,,-99.99,,2013-09-01 13:52:00,
2013-09-01 09:02:00,63.0,62.0,-100.00,WNW,285,5.0,9.0,98,-99.99,,,-99.99,,2013-09-01 14:02:00,
2013-09-01 09:42:00,64.0,62.0,-100.00,NW,305,6.0,11.0,93,-99.99,,,-99.99,,2013-09-01 14:42:00,
2013-09-01 09:52:00,64.0,62.0,-100.00,NW,305,6.0,11.0,93,-99.99,,,-99.99,,2013-09-01 14:52:00,
2013-09-01 10:02:00,64.0,62.0,-100.00,NW,305,6.0,11.0,93,-99.99,,,-99.99,,2013-09-01 15:02:00,
2013-09-01 10:45:00,67.0,59.0,-100.00,NW,325,7.0,17.0,77,-99.99,,,-99.99,,2013-09-01 15:45:00,
2013-09-01 10:55:00,67.0,59.0,-100.00,NW,325,7.0,17.0,77,-99.99,,,-99.99,,2013-09-01 15:55:00,
2013-09-01 11:05:00,67.0,59.0,-100.00,NW,325,7.0,17.0,77,-99.99,,,-99.99,,2013-09-01 16:05:00,
2013-09-01 11:43:00,71.0,60.0,-100.00,NW,310,7.0,13.0,69,-99.99,,,-99.99,,2013-09-01 16:43:00,
2013-09-01 11:53:00,71.0,60.0,-100.00,NW,310,7.0,13.0,69,-99.99,,,-99.99,,2013-09-01 16:53:00,
2013-09-01 12:03:00,71.0,60.0,-100.00,NW,310,7.0,13.0,69,-99.99,,,-99.99,,2013-09-01 17:03:00,
2013-09-01 12:42:00,73.0,56.0,-100.00,NW,310,9.0,17.0,56,-99.99,,,-99.99,,2013-09-01 17:42:00,
2013-09-01 12:52:00,73.0,56.0,-100.00,NW,310,9.0,17.0,56,-99.99,,,-99.99,,2013-09-01 17:52:00,
2013-09-01 13:02:00,73.0,56.0,-100.00,NW,310,9.0,17.0,56,-99.99,,,-99.99,,2013-09-01 18:02:00,
2013-09-01 13:10:00,74.0,56.0,-100.00,NW,315,9.0,17.0,54,-99.99,,,-99.99,,2013-09-01 18:10:00,
2013-09-01 13:42:00,74.0,56.0,-100.00,NW,315,9.0,17.0,54,-99.99,,,-99.99,,2013-09-01 18:42:00,
2013-09-01 13:52:00,74.0,56.0,-100.00,NW,315,9.0,17.0,54,-99.99,,,-99.99,,2013-09-01 18:52:00,
2013-09-01 14:02:00,74.0,56.0,-100.00,NW,315,9.0,17.0,54,-99.99,,,-99.99,,2013-09-01 19:02:00,
2013-09-01 14:10:00,75.0,58.0,-100.00,WNW,290,7.0,13.0,55,-99.99,,,-99.99,,2013-09-01 19:10:00,
2013-09-01 14:42:00,75.0,58.0,-100.00,WNW,290,7.0,13.0,55,-99.99,,,-99.99,,2013-09-01 19:42:00,
2013-09-01 14:52:00,75.0,58.0,-100.00,WNW,290,7.0,13.0,55,-99.99,,,-99.99,,2013-09-01 19:52:00,
2013-09-01 15:02:00,75.0,58.0,-100.00,WNW,290,7.0,13.0,55,-99.99,,,-99.99,,2013-09-01 20:02:00,
2013-09-01 15:42:00,78.0,56.0,-100.00,WNW,290,6.0,12.0,47,-99.99,,,-99.99,,2013-09-01 20:42:00,
2013-09-01 15:52:00,78.0,56.0,-100.00,WNW,290,6.0,12.0,47,-99.99,,,-99.99,,2013-09-01 20:52:00,
2013-09-01 16:02:00,78.0,56.0,-100.00,WNW,290,6.0,12.0,47,-99.99,,,-99.99,,2013-09-01 21:02:00,
2013-09-01 16:44:00,70.0,57.0,-100.00,NW,310,7.0,14.0,64,-99.99,,,-99.99,,2013-09-01 21:44:00,
2013-09-01 16:55:00,70.0,57.0,-100.00,NW,310,7.0,14.0,64,-99.99,,,-99.99,,2013-09-01 21:55:00,
2013-09-01 17:04:00,70.0,57.0,-100.00,NW,310,7.0,14.0,64,-99.99,,,-99.99,,2013-09-01 22:04:00,
2013-09-01 17:43:00,69.0,58.0,-100.00,NW,305,7.0,14.0,68,-99.99,,,-99.99,,2013-09-01 22:43:00,
2013-09-01 17:53:00,69.0,58.0,-100.00,NW,305,7.0,14.0,68,-99.99,,,-99.99,,2013-09-01 22:53:00,
2013-09-01 18:03:00,69.0,58.0,-100.00,NW,305,7.0,14.0,68,-99.99,,,-99.99,,2013-09-01 23:03:00,
2013-09-01 18:42:00,66.0,57.0,-100.00,NW,320,11.0,20.0,72,-99.99,,,-99.99,,2013-09-01 23:42:00,
2013-09-01 18:53:00,66.0,57.0,-100.00,NW,320,11.0,20.0,72,-99.99,,,-99.99,,2013-09-01 23:53:00,
2013-09-01 19:02:00,66.0,57.0,-100.00,NW,320,11.0,20.0,72,-99.99,,,-99.99,,2013-09-02 00:02:00,
2013-09-01 19:42:00,63.0,56.0,-100.00,NW,320,6.0,13.0,77,-99.99,,,-99.99,,2013-09-02 00:42:00,
2013-09-01 19:52:00,63.0,56.0,-100.00,NW,320,6.0,13.0,77,-99.99,,,-99.99,,2013-09-02 00:52:00,
2013-09-01 20:02:00,63.0,56.0,-100.00,NW,320,6.0,13.0,77,-99.99,,,-99.99,,2013-09-02 01:02:00,
2013-09-01 20:10:00,61.0,54.0,-100.00,NNW,330,7.0,19.0,78,-99.99,,,-99.99,,2013-09-02 01:10:00,
2013-09-01 20:42:00,61.0,54.0,-100.00,NNW,330,7.0,19.0,78,-99.99,,,-99.99,,2013-09-02 01:42:00,
2013-09-01 20:52:00,61.0,54.0,-100.00,NNW,330,7.0,19.0,78,-99.99,,,-99.99,,2013-09-02 01:52:00,
2013-09-01 21:02:00,61.0,54.0,-100.00,NNW,330,7.0,19.0,78,-99.99,,,-99.99,,2013-09-02 02:02:00,
2013-09-01 21:10:00,59.0,55.0,-100.00,NNW,335,4.0,11.0,85,-99.99,,,-99.99,,2013-09-02 02:10:00,
2013-09-01 21:42:00,59.0,55.0,-100.00,NNW,335,4.0,11.0,85,-99.99,,,-99.99,,2013-09-02 02:42:00,
2013-09-01 21:52:00,59.0,55.0,-100.00,NNW,335,4.0,11.0,85,-99.99,,,-99.99,,2013-09-02 02:52:00,
2013-09-01 22:02:00,59.0,55.0,-100.00,NNW,335,4.0,11.0,85,-99.99,,,-99.99,,2013-09-02 03:02:00,
2013-09-01 22:44:00,57.0,55.0,-100.00,NNW,335,6.0,12.0,93,-99.99,,,-99.99,,2013-09-02 03:44:00,
2013-09-01 22:56:00,57.0,55.0,-100.00,NNW,335,6.0,12.0,93,-99.99,,,-99.99,,2013-09-02 03:56:00,
2013-09-01 23:04:00,57.0,55.0,-100.00,NNW,335,6.0,12.0,93,-99.99,,,-99.99,,2013-09-02 04:04:00,
2013-09-01 23:44:00,56.0,54.0,-100.00,NNW,335,6.0,10.0,95,-99.99,,,-99.99,,2013-09-02 04:44:00,
2013-09-01 23:54:00,56.0,54.0,-100.00,NNW,335,6.0,10.0,95,-99.99,,,-99.99,,2013-09-02 04:54:00,